DELTA 1 DEB, 3126

Orbit data source: Space-Track

DELTA 1 DEB, 3126 is space debris in LEO originally from a launch on Thu, 11 Jan 1968 UTC launched from the Air Force Western Test Range (AFWTR). Debris objects in space refer to the collection of defunct objects orbiting the Earth. Examples of debris include non-operational satellites, rocket bodies, and fragments generated from explosions, collisions, or faulty payload assembly.

Loading next visibility...
Identifier
3126, 1968-002C
Orbit
LEO
Country
Flag of USUS
Related business
Manufacturer
Unknown
Mission
Spacecraft
Bus & Motor
Unknown
Mass
Unknown
Launch date (UTC)
1968-01-11 (58 years ago)
Launch vehicle
Unknown
Launch site
Air Force Western Test Range (AFWTR)
Object type
Payload
Rocket body
Debris
Shape & HBR
Unknown shape, 0.1 m
Radar Cross Section
Small (<0.1 m²)

Expand to show TLE details & history
Last TLE update: 5 days ago

TLE from 5 days ago
0 DELTA 1 DEB
1 03126U 68002C   25284.35749517 -.00000070  00000-0  25350-4 0  9997
2 03126 106.0742 124.0918 0321936 196.0470 344.7092 12.82452231702389
Epoch: 2025-10-11T08:34Z
TLE epoch observation values (Epoch: 2025-10-11T08:34:47.582Z)
Latitude
0.14171°
Longitude
155.24403°
Altitude
1,095.158 km
Speed
7.417 km/s
True Right ascension
20h 16m 31s
True Declination
0° 08' 27"
Sunlit
Object was in daylight at epoch
Visualization orbit readout
Latitude
Unknown
Longitude
Unknown
Altitude
Unknown
Speed
Unknown
Apparent Right ascension
Unknown
Apparent Declination
Unknown
Sunlit
N/A
Visualization observer readout
Local Sidereal Time
09:36:31
Azimuth
Unknown
Elevation
Unknown
Doppler factor
Unknown
Orbital elements
Apogee altitude
1,577.563 km
Perigee altitude
1,081.294 km
Semi-major axis
7,707.566 km
Eccentricity
0.03219
Inclination
106.0742°
RAAN
124.0918°
Arg. of periapsis
196.047°
True anomaly
343.69714°
Mean anomaly
344.7092°
Eccentric anomaly
344.20719°
Mean motion
3.2075 °/min
Orbital period
112.24 mins
BSTAR
0.00002535
Loading maneuver chart data...
Computing Atmospheric mass density...
Loading historical data...
Loading historical data...
Loading historical data...
Loading historical data...
Loading historical data...
Loading historical data...
Loading historical data...

Documentation

Showing up to 5 results
|